GW5231 Weather Reports


Display with metric or nautical units.
time (UTC)temp
F
wind
direction
speed
MPH
gust
MPH
rain 1hr
in
rain 24hr
in
rain mn
in
humidity
%
barometer
mb
20260503184304 68 289 5.0 6.0 0.00 0.00 0.00 40 1007.9
20260503183759 67 243 4.0 5.0 0.00 0.00 0.00 40 1008.1
20260503183257 67 288 6.0 9.0 0.00 0.00 0.00 43 1007.9
20260503182754 68 267 6.0 10.0 0.00 0.00 0.00 44 1007.9
20260503182253 67 256 2.0 4.0 0.00 0.00 0.00 39 1008.1
20260503181750 67 263 8.0 10.0 0.00 0.00 0.00 40 1008.0
20260503181247 66 215 6.0 8.0 0.00 0.00 0.00 40 1008.0
20260503180743 66 285 11.0 14.0 0.00 0.00 0.00 42 1008.1
20260503180242 66 281 10.0 13.0 0.00 0.00 0.00 40 1008.1
20260503175737 66 234 12.0 15.0 0.00 0.00 0.00 43 1008.0
20260503175231 65 253 10.0 10.0 0.00 0.00 0.00 40 1008.3
20260503174726 67 266 8.0 11.0 0.00 0.00 0.00 40 1008.4
20260503174225 66 197 11.0 14.0 0.00 0.00 0.00 46 1008.3
20260503173724 65 226 8.0 9.0 0.00 0.00 0.00 43 1008.3
20260503173220 66 286 5.0 6.0 0.00 0.00 0.00 48 1008.4
20260503172718 65 237 7.0 9.0 0.00 0.00 0.00 42 1008.5
20260503172215 64 210 10.0 11.0 0.00 0.00 0.00 42 1008.4
20260503171711 65 237 11.0 13.0 0.00 0.00 0.00 45 1008.4
20260503171208 65 278 6.0 6.0 0.00 0.00 0.00 41 1008.4
20260503170706 64 239 10.0 13.0 0.00 0.00 0.00 44 1008.4
20260503170202 64 248 9.0 11.0 0.00 0.00 0.00 43 1008.5
20260503160124 63 289 6.0 8.0 0.00 0.00 0.00 41 1008.9
20260503150554 60 233 12.0 15.0 0.00 0.00 0.00 49 1009.4
20260503130944 54 158 5.0 6.0 0.00 0.00 0.00 54 1010.4
20260503130442 53 173 5.0 6.0 0.00 0.00 0.00 54 1010.3
20260503110337 48 211 4.0 5.0 0.00 0.00 0.00 62 1010.5
20260503090223 49 193 6.0 8.0 0.00 0.00 0.00 61 1011.4
20260503081151 49 216 3.0 4.0 0.00 0.00 0.00 64 1011.8
20260503080647 49 201 4.0 5.0 0.00 0.00 0.00 62 1011.8
20260503080144 48 185 4.0 5.0 0.00 0.00 0.00 66 1011.9
20260503072621 48 285 2.0 2.0 0.00 0.00 0.00 64 1012.5
20260503072118 49 300 2.0 2.0 0.00 0.00 0.00 63 1012.8
20260503071614 50 196 5.0 6.0 0.00 0.00 0.00 59 1013.2
20260503071111 48 203 5.0 6.0 0.00 0.00 0.00 61 1013.2
20260503070608 49 250 3.0 4.0 0.00 0.00 0.00 60 1013.3
20260503070106 49 228 3.0 4.0 0.00 0.00 0.00 59 1013.3
20260503055031 48 248 2.0 2.0 0.00 0.00 0.00 60 1013.3
20260503054527 49 211 4.0 4.0 0.00 0.00 0.00 59 1013.5
20260503054025 48 238 3.0 4.0 0.00 0.00 0.00 58 1013.4
20260503053523 48 209 5.0 5.0 0.00 0.00 0.00 60 1013.4
20260503053020 48 207 3.0 4.0 0.00 0.00 0.00 61 1013.5
20260503052517 47 253 2.0 2.0 0.00 0.00 0.00 61 1013.5
20260503052013 47 212 4.0 4.0 0.00 0.00 0.00 61 1013.5
20260503051509 48 208 4.0 5.0 0.00 0.00 0.00 61 1013.5
20260503051007 49 203 3.0 4.0 0.00 0.00 0.00 60 1013.7
20260503050502 50 205 4.0 5.0 0.00 0.00 0.00 58 1013.6
20260503050000 50 216 3.0 4.0 0.00 0.00 0.00 56 1013.9
20260503045457 50 227 3.0 4.0 0.00 0.00 0.00 58 1013.8
20260503044954 50 211 3.0 4.0 0.00 0.00 0.00 57 1013.8
20260503044450 50 217 4.0 5.0 0.00 0.00 0.00 55 1013.9
20260503043948 51 215 4.0 5.0 0.00 0.00 0.00 55 1013.9
20260503043444 50 200 6.0 6.0 0.00 0.00 0.00 54 1013.9
20260503042941 49 240 2.0 2.0 0.00 0.00 0.00 56 1014.0
20260503042437 49 253 2.0 2.0 0.00 0.00 0.00 58 1014.0
20260503041934 49 204 4.0 5.0 0.00 0.00 0.00 57 1014.0
20260503041431 49 209 4.0 5.0 0.00 0.00 0.00 57 1014.0
20260503040928 49 209 4.0 4.0 0.00 0.00 0.00 58 1014.1
20260503040426 49 209 4.0 5.0 0.00 0.00 0.00 57 1014.1
20260503035923 50 210 4.0 5.0 0.00 0.00 0.00 56 1014.1
20260503035420 50 220 3.0 4.0 0.00 0.00 0.00 55 1014.1
20260503034917 50 205 4.0 5.0 0.00 0.00 0.00 57 1014.2
20260503034415 51 213 4.0 5.0 0.00 0.00 0.00 57 1014.4
20260503033911 51 209 4.0 4.0 0.00 0.00 0.00 54 1014.3
20260503033409 51 250 2.0 2.0 0.00 0.00 0.00 55 1014.3
20260503032907 51 261 2.0 2.0 0.00 0.00 0.00 53 1014.4
20260503032405 51 211 3.0 4.0 0.00 0.00 0.00 52 1014.5
20260503031902 51 246 2.0 2.0 0.00 0.00 0.00 54 1014.7
20260503031400 50 217 3.0 4.0 0.00 0.00 0.00 56 1014.7
20260503030856 50 209 4.0 5.0 0.00 0.00 0.00 56 1014.8
20260503030353 50 220 4.0 4.0 0.00 0.00 0.00 54 1014.7
20260503025849 50 197 4.0 4.0 0.00 0.00 0.00 56 1014.7
20260503025347 50 197 3.0 4.0 0.00 0.00 0.00 54 1014.9
20260503024844 51 197 2.0 2.0 0.00 0.00 0.00 52 1015.1
20260503024340 51 197 3.0 4.0 0.00 0.00 0.00 51 1015.0
20260503023837 51 197 2.0 2.0 0.00 0.00 0.00 50 1014.9
20260503023335 51 208 3.0 4.0 0.00 0.00 0.00 52 1014.9
20260503022832 51 208 4.0 4.0 0.00 0.00 0.00 48 1014.9
20260503022331 49 208 2.0 2.0 0.00 0.00 0.00 57 1015.1
20260503021828 50 208 2.0 2.0 0.00 0.00 0.00 54 1015.2
20260503021325 50 208 1.0 1.0 0.00 0.00 0.00 56 1015.1
20260503020822 49 245 2.0 2.0 0.00 0.00 0.00 56 1015.2
20260503020320 50 279 1.0 1.0 0.00 0.00 0.00 57 1015.3
20260503015816 50 276 1.0 1.0 0.00 0.00 0.00 54 1015.2
20260503015313 51 275 1.0 1.0 0.00 0.00 0.00 56 1015.4
20260503014809 51 279 1.0 1.0 0.00 0.00 0.00 54 1015.1
20260503014307 52 217 2.0 2.0 0.00 0.00 0.00 51 1015.1
20260503013804 53 217 4.0 4.0 0.00 0.00 0.00 49 1015.1
20260503013301 54 267 2.0 2.0 0.00 0.00 0.00 50 1015.2
20260503012758 54 261 2.0 2.0 0.00 0.00 0.00 44 1015.3
20260503012255 55 251 2.0 2.0 0.00 0.00 0.00 45 1015.3
20260503011752 55 254 2.0 2.0 0.00 0.00 0.00 43 1015.4
20260503011249 55 258 1.0 2.0 0.00 0.00 0.00 44 1015.4
20260503010745 55 258 2.0 2.0 0.00 0.00 0.00 44 1015.4
20260503010242 56 247 2.0 2.0 0.00 0.00 0.00 43 1015.5
20260503005740 56 256 1.0 2.0 0.00 0.00 0.00 42 1015.3
20260503005237 57 317 1.0 1.0 0.00 0.00 0.00 40 1015.6
20260503004733 57 261 3.0 4.0 0.00 0.00 0.00 39 1015.4
20260503004231 57 291 2.0 2.0 0.00 0.00 0.00 39 1015.7
20260503003728 57 277 2.0 2.0 0.00 0.00 0.00 39 1015.8
20260503003225 57 293 1.0 1.0 0.00 0.00 0.00 39 1015.8
20260503002722 57 249 4.0 5.0 0.00 0.00 0.00 38 1015.8
20260503002219 57 296 2.0 2.0 0.00 0.00 0.00 38 1016.0
20260503001715 57 269 3.0 5.0 0.00 0.00 0.00 38 1015.7
20260503001212 57 260 3.0 4.0 0.00 0.00 0.00 39 1015.8
20260503000710 58 280 6.0 8.0 0.00 0.00 0.00 38 1015.7
20260503000207 58 314 3.0 4.0 0.00 0.00 0.00 36 1015.7
20260502235703 58 266 8.0 11.0 0.00 0.00 0.00 37 1015.7
20260502235201 59 262 3.0 6.0 0.00 0.00 0.00 38 1015.8
20260502234657 59 327 8.0 11.0 0.00 0.00 0.00 36 1016.0
20260502234155 58 252 5.0 8.0 0.00 0.00 0.00 37 1016.2
20260502233650 59 315 3.0 4.0 0.00 0.00 0.00 36 1016.0
20260502233147 60 308 4.0 5.0 0.00 0.00 0.00 35 1016.2
20260502232643 60 299 3.0 4.0 0.00 0.00 0.00 38 1016.0
20260502232141 60 298 6.0 6.0 0.00 0.00 0.00 38 1016.0
20260502231637 60 285 5.0 8.0 0.00 0.00 0.00 35 1016.1
20260502231135 59 273 4.0 5.0 0.00 0.00 0.00 38 1015.8
20260502230633 60 271 7.0 9.0 0.00 0.00 0.00 35 1016.2
20260502230131 60 330 6.0 8.0 0.00 0.00 0.00 35 1016.4
20260502225626 60 263 5.0 5.0 0.00 0.00 0.00 34 1016.4
20260502225124 60 268 5.0 6.0 0.00 0.00 0.00 33 1016.3
20260502224620 60 308 9.0 13.0 0.00 0.00 0.00 35 1016.3
20260502224117 60 233 3.0 5.0 0.00 0.00 0.00 35 1016.2
20260502223615 61 290 4.0 5.0 0.00 0.00 0.00 35 1016.4
20260502223113 60 285 4.0 5.0 0.00 0.00 0.00 36 1016.4
20260502222610 60 292 9.0 11.0 0.00 0.00 0.00 35 1016.3
20260502222106 60 288 7.0 8.0 0.00 0.00 0.00 33 1016.5
20260502221602 60 243 11.0 13.0 0.00 0.00 0.00 33 1016.3
20260502221100 60 263 12.0 18.0 0.00 0.00 0.00 34 1016.6
20260502220555 60 326 9.0 10.0 0.00 0.00 0.00 35 1016.6
20260502220052 60 273 6.0 8.0 0.00 0.00 0.00 34 1016.7
20260502215549 59 277 4.0 5.0 0.00 0.00 0.00 32 1016.5
20260502215046 59 206 8.0 11.0 0.00 0.00 0.00 33 1016.7
20260502214543 60 226 11.0 14.0 0.00 0.00 0.00 33 1016.9
20260502214041 60 271 9.0 10.0 0.00 0.00 0.00 34 1016.8
20260502213537 60 241 9.0 11.0 0.00 0.00 0.00 31 1016.7
20260502213035 59 255 4.0 5.0 0.00 0.00 0.00 34 1016.8
20260502212534 60 272 2.0 4.0 0.00 0.00 0.00 38 1017.1
20260502212031 60 266 9.0 11.0 0.00 0.00 0.00 31 1016.8
20260502211526 60 248 7.0 8.0 0.00 0.00 0.00 33 1016.8
20260502211024 60 253 10.0 14.0 0.00 0.00 0.00 32 1017.0
20260502210521 60 257 7.0 11.0 0.00 0.00 0.00 32 1017.0
20260502210018 60 236 9.0 11.0 0.00 0.00 0.00 34 1017.2
20260502205514 59 277 6.0 9.0 0.00 0.00 0.00 32 1017.2
20260502205011 58 259 4.0 4.0 0.00 0.00 0.00 35 1017.4
20260502204508 57 265 2.0 4.0 0.00 0.00 0.00 35 1017.4
20260502204006 59 300 6.0 9.0 0.00 0.00 0.00 32 1017.5
20260502203503 60 242 12.0 15.0 0.00 0.00 0.00 31 1017.3
20260502203000 60 276 4.0 5.0 0.00 0.00 0.00 33 1017.3
20260502202456 60 244 11.0 15.0 0.00 0.00 0.00 33 1017.5
20260502201954 60 312 3.0 4.0 0.00 0.00 0.00 32 1017.5
20260502201450 59 272 6.0 8.0 0.00 0.00 0.00 37 1017.7
20260502200947 58 281 11.0 14.0 0.00 0.00 0.00 32 1017.7
20260502200442 59 293 6.0 10.0 0.00 0.00 0.00 36 1017.8
20260502195940 58 218 11.0 16.0 0.00 0.00 0.00 32 1017.9
20260502195437 59 258 8.0 11.0 0.00 0.00 0.00 33 1017.9
20260502194934 59 280 4.0 5.0 0.00 0.00 0.00 38 1018.1
20260502194431 59 281 5.0 8.0 0.00 0.00 0.00 37 1018.1
20260502193926 58 229 6.0 9.0 0.00 0.00 0.00 36 1018.1
20260502193424 59 248 7.0 10.0 0.00 0.00 0.00 33 1018.3
20260502192919 58 199 9.0 15.0 0.00 0.00 0.00 31 1018.5
20260502192416 59 228 11.0 14.0 0.00 0.00 0.00 33 1018.6
20260502191913 59 287 9.0 10.0 0.00 0.00 0.00 36 1018.6
20260502191411 58 251 8.0 10.0 0.00 0.00 0.00 36 1018.5
20260502190909 58 256 11.0 16.0 0.00 0.00 0.00 33 1018.6
20260502190405 57 306 7.0 9.0 0.00 0.00 0.00 35 1018.6
20260502185901 59 322 5.0 5.0 0.00 0.00 0.00 35 1018.6
20260502185357 58 294 9.0 11.0 0.00 0.00 0.00 34 1018.7
20260502184855 57 262 4.0 5.0 0.00 0.00 0.00 34 1019.0